This is the latest recevied weather packets stored in our database for station/object CT8ACA-6. If no packets are shown the sender has not sent any weather packets the latest 10 day(s).
| Time | Temp. | Humidity | Pressure | Rain* | Wind** | Luminosity | Snow |
|---|---|---|---|---|---|---|---|
| 1787843834 | 27.78° C | 58% | 1030.1 hPa | 0 mm | - | - | - |
| 1787843234 | 27.22° C | 58% | 1030.1 hPa | 0 mm | - | - | - |
| 1787842633 | 26.11° C | 55% | 1030.1 hPa | 0 mm | - | - | - |
| 1787842033 | 26.67° C | 56% | 1030 hPa | 0 mm | - | - | - |
| 1787841434 | 26.67° C | 57% | 1030 hPa | 0 mm | - | - | - |
| 1787840833 | 27.78° C | 57% | 1029.5 hPa | 0 mm | - | - | - |
| 1787840233 | 27.78° C | 57% | 1029.5 hPa | 0 mm | - | - | - |
| 1787839633 | 27.78° C | 58% | 1028.9 hPa | 0 mm | - | - | - |
| 1787839033 | 26.67° C | 56% | 1028.9 hPa | 0 mm | - | - | - |
| 1787838433 | 27.22° C | 58% | 1028.4 hPa | 0 mm | - | - | - |
| 1787837833 | 28.33° C | 57% | 1028.4 hPa | 0 mm | - | - | - |
| 1787837232 | 28.33° C | 60% | 1028 hPa | 0 mm | - | - | - |
| 1787836632 | 27.78° C | 60% | 1028 hPa | 0 mm | - | - | - |
| 1787836033 | 26.67° C | 59% | 1027.9 hPa | 0 mm | - | - | - |
| 1787835432 | 26.67° C | 58% | 1027.9 hPa | 0 mm | - | - | - |
| 1787834832 | 26.67° C | 59% | 1027.3 hPa | 0 mm | - | - | - |
| 1787834232 | 27.22° C | 60% | 1027.3 hPa | 0 mm | - | - | - |
| 1787833632 | 27.22° C | 62% | 1026.9 hPa | 0 mm | - | - | - |
| 1787833032 | 26.67° C | 64% | 1026.9 hPa | 0 mm | - | - | - |
| 1787832432 | 25.56° C | 63% | 1026.4 hPa | 0 mm | - | - | - |
| 1787831831 | 26.11° C | 63% | 1026.4 hPa | 0 mm | - | - | - |
| 1787831231 | 25.56° C | 62% | 1025.9 hPa | 0 mm | - | - | - |
| 1787830632 | 25.56° C | 65% | 1025.9 hPa | 0 mm | - | - | - |
| 1787830031 | 25° C | 64% | 1024.9 hPa | 0 mm | - | - | - |
| 1787829431 | 24.44° C | 66% | 1024.9 hPa | 0 mm | - | - | - |
* Rain latest hour (hover to see other rain measurements)
** Current wind speed in m/s (hover to see current wind gust speed)